Location: *
(34.6780°N, 135.8310°E)
Time: 01:58:53
(UTC+00:00)

ATLAS 3B R/B - Pass Details

Date: 18 October 2019
Orbit: 1028 x 1167 km, 63.8° (Epoch: 07 November)

Event Time Altitude Azimuth Distance (km) Brightness Sun altitude
Rises 19:21:04 0° 334° (NNW) 3,795 5.4 -22.1°
Reaches altitude 10° 19:23:46 10° 340° (NNW) 2,850 4.8 -21.5°
Maximum altitude 19:30:16 50° 55° (NE) 1,328 3.5 -20.2°
Drops below altitude 10° 19:36:55 10° 129° (SE) 2,919 5.7 -18.8°
Sets 19:39:43 0° 135° (SE) 3,894 6.3 -18.3°
